(413730) = 2006 BD139

Discovered at Mount Lemmon on 2006-01-28 by Mt. Lemmon Survey.

Orbit

Orbit type: Main Belt

Note: WebGL enabled browser required.

epoch2022-01-21.0
epoch JD2459600.5
perihelion date2017-01-14.76077
perihelion JD2457768.26077
argument of perihelion (°)215.49857
ascending node (°)327.14011
inclination (°)7.97482
eccentricity0.0758202
perihelion distance (AU)2.8149920
Tisserand w.r.t. Jupiter3.2
ΔV w.r.t. Earth (km/sec)10.7
semimajor axis (AU)3.0459353
mean anomaly (°)339.70740
mean daily motion (°/day)0.18540560
aphelion distance (AU)3.277
period (years)5.32
P-vector [x]-0.99589272
P-vector [y]-0.00586452
P-vector [z]-0.09035101
Q-vector [x]0.05030932
Q-vector [y]-0.86551222
Q-vector [z]-0.49835487
absolute magnitude16.71
phase slope0.15
uncertainty0
referenceMPO 699296
observations used151
oppositions11
arc length (days)5910
first opposition used2006
last opposition used2022
residual rms (arc-secs)0.87
perturbers coarse indicatorM-v
perturbers precise indicator003Ek
first observation date used2006-01-28.0
last observation date used2022-04-04.0
computer namePan
Minimum Orbit Intersection Distances (in AU)
for orbit epoch: 2458200.5, reference: MPO408875
Mercury2.40158
Venus2.09971
Earth1.81911
Mars1.16743
Jupiter1.72272
Saturn6.06142
Uranus15.3862
Neptune26.634

Observations

153 total observations over interval: 2006 01 28.36914 – 2022 04 04.261448
These data are available for download (format description).

